TimePDT,TemperatureF,Dew PointF,Humidity,Sea Level PressureIn,VisibilityMPH,Wind Direction,Wind SpeedMPH,Gust SpeedMPH,PrecipitationIn,Events,Conditions,WindDirDegrees,DateUTC
12:53 AM,52.0,35.1,53,30.05,10.0,SW,5.8,-,N/A,,Clear,220,2013-04-03 07:53:00
1:53 AM,48.0,30.0,50,30.05,10.0,Calm,Calm,-,N/A,,Clear,0,2013-04-03 08:53:00
2:53 AM,48.9,30.9,50,30.05,10.0,South,4.6,-,N/A,,Clear,190,2013-04-03 09:53:00
3:53 AM,46.9,33.1,59,30.04,10.0,Calm,Calm,-,N/A,,Clear,0,2013-04-03 10:53:00
4:53 AM,46.9,33.1,59,30.05,10.0,South,6.9,-,N/A,,Clear,190,2013-04-03 11:53:00
5:53 AM,46.0,32.0,58,30.06,10.0,SSW,8.1,-,N/A,,Clear,200,2013-04-03 12:53:00
6:53 AM,45.0,32.0,60,30.08,10.0,South,4.6,-,N/A,,Clear,180,2013-04-03 13:53:00
7:53 AM,51.1,33.1,50,30.09,10.0,Calm,Calm,-,N/A,,Clear,0,2013-04-03 14:53:00
8:53 AM,60.1,34.0,38,30.09,10.0,ENE,5.8,-,N/A,,Clear,70,2013-04-03 15:53:00
9:53 AM,63.0,35.1,35,30.09,10.0,NNE,3.5,-,N/A,,Clear,20,2013-04-03 16:53:00
10:53 AM,68.0,34.0,28,30.09,10.0,Calm,Calm,-,N/A,,Clear,0,2013-04-03 17:53:00
11:53 AM,71.1,34.0,26,30.08,10.0,Calm,Calm,-,N/A,,Clear,0,2013-04-03 18:53:00
12:53 PM,75.0,30.9,20,30.05,10.0,ENE,5.8,-,N/A,,Clear,70,2013-04-03 19:53:00
1:53 PM,78.1,32.0,19,30.03,10.0,ENE,8.1,-,N/A,,Clear,60,2013-04-03 20:53:00
2:53 PM,78.1,30.0,17,30.01,10.0,Variable,4.6,-,N/A,,Clear,0,2013-04-03 21:53:00
3:53 PM,81.0,28.9,15,29.98,10.0,North,3.5,-,N/A,,Clear,350,2013-04-03 22:53:00
4:53 PM,81.0,32.0,17,29.97,10.0,WNW,5.8,16.1,N/A,,Clear,300,2013-04-03 23:53:00
5:20 PM,80.6,35.6,20,30.02,10.0,WSW,16.1,-,N/A,,Clear,240,2013-04-04 00:20:00
5:53 PM,78.1,35.1,21,29.97,10.0,WSW,15.0,-,N/A,,Clear,240,2013-04-04 00:53:00
6:53 PM,75.0,30.9,20,29.99,10.0,WSW,13.8,-,N/A,,Clear,240,2013-04-04 01:53:00
7:53 PM,71.1,28.9,21,29.99,10.0,WSW,11.5,-,N/A,,Clear,250,2013-04-04 02:53:00
8:53 PM,69.1,32.0,25,30.00,10.0,WSW,10.4,-,N/A,,Clear,240,2013-04-04 03:53:00
9:53 PM,69.1,30.9,24,30.00,10.0,SW,12.7,-,N/A,,Clear,220,2013-04-04 04:53:00
10:53 PM,66.9,28.9,24,30.01,10.0,NNW,4.6,-,N/A,,Clear,330,2013-04-04 05:53:00
11:53 PM,59.0,35.1,41,30.02,10.0,ESE,3.5,-,N/A,,Clear,120,2013-04-04 06:53:00